Eindhoven, Netherlands

1:10 AM CEST on May 01, 2017 (GMT +0200)
Eindhoven Air Base

Weather History for EHEH - October, 2012

Change the Weather History Date:

Monday, October 1, 2012

  Actual Average Record
Temperature  
Mean Temperature 54 °F -  
Max Temperature 67 °F 57 °F 78 °F (2011)
Min Temperature 42 °F 43 °F 39 °F (2002)
Degree Days  
Heating Degree Days 10    
Growing Degree Days 4 (Base 50)    
Moisture  
Dew Point 47 °F    
Average Humidity 77    
Maximum Humidity 100    
Minimum Humidity 45    
Precipitation  
Precipitation 0.00 in - - ()
Sea Level Pressure  
Sea Level Pressure 29.99 in    
Wind  
Wind Speed 7 mph ()    
Max Wind Speed 14 mph    
Max Gust Speed -    
Visibility 6.3 miles    
Events Rain    
Averages and records for this station are not official NWS values.
T = Trace of Precipitation, MM = Missing Value Source: Averaged Metar Reports

Daily Weather History Graph

Daily Weather History Graph

Search for Another Location

Airport or City:

Trip Planner

Search our weather history database for the weather conditions in past years. The results will help you decide how hot, cold, wet, or windy it might be!

Date:

Astronomy

Oct. 01, 2012 Rise Set
Actual Time 7:39 AM CEST 7:15 PM CEST
Civil Twilight 7:06 AM CEST 7:48 PM CEST
Nautical Twilight 6:27 AM CEST 8:27 PM CEST
Astronomical Twilight 5:47 AM CEST 9:06 PM CEST
Moon 7:25 PM CEST (10/1) 9:08 AM CEST (10/1)
Length of Visible Light 12h 42m
Length of Day
11h 35m
Full, 98% of the Moon is Illuminated
Oct 1
Full
Oct 8
Last Quarter
Oct 15
New
Oct 22
First Quarter
Oct 29
Full

Hourly Weather History & Observations

Time (CEST) Temp. Windchill Dew Point Humidity Pressure Visibility Wind Dir Wind Speed Gust Speed Precip Events Conditions
12:25 AM 46.4 °F 42.9 °F 44.6 °F 93% 30.06 in 6.2 mi SSW 6.9 mph - N/A   Unknown
12:55 AM 46.4 °F 44.3 °F 44.6 °F 93% 30.06 in 6.2 mi South 4.6 mph - N/A   Unknown
1:25 AM 46.4 °F 44.3 °F 44.6 °F 93% 30.06 in 6.2 mi South 4.6 mph - N/A   Unknown
1:55 AM 46.4 °F 43.5 °F 44.6 °F 93% 30.06 in 6.2 mi South 5.8 mph - N/A   Unknown
2:00 AM 47 °F - 45 °F 89% 30.08 in 12 mi South 6.7 mph - -   Partly Cloudy
2:25 AM 46.4 °F 42.9 °F 44.6 °F 93% 30.06 in 6.2 mi South 6.9 mph - N/A   Unknown
2:55 AM 48.2 °F - 44.6 °F 87% 30.06 in 6.2 mi South 8.1 mph - N/A   Unknown
3:25 AM 46.4 °F 42.9 °F 44.6 °F 93% 30.06 in 6.2 mi South 6.9 mph - N/A   Mostly Cloudy
3:55 AM 46.4 °F 44.3 °F 44.6 °F 93% 30.04 in 6.2 mi SSW 4.6 mph - N/A   Partly Cloudy
4:25 AM 44.6 °F 42.2 °F 42.8 °F 93% 30.04 in 6.2 mi South 4.6 mph - N/A   Unknown
4:55 AM 44.6 °F 41.4 °F 42.8 °F 93% 30.04 in 5.6 mi South 5.8 mph - N/A   Mist
5:00 AM 44 °F - 43 °F 94% 30.04 in 6 mi South 4.5 mph - -   Mist
5:25 AM 44.6 °F 42.2 °F 42.8 °F 93% 30.01 in 5.6 mi South 4.6 mph - N/A   Mist
5:44 AM 42.8 °F 40.1 °F 42.8 °F 100% 30.01 in 4.3 mi SSW 4.6 mph - N/A   Mist
5:48 AM 42.8 °F 40.1 °F 42.8 °F 100% 30.01 in 5.0 mi SSW 4.6 mph - N/A   Mist
5:55 AM 42.8 °F 41.1 °F 42.8 °F 100% 30.01 in 5.6 mi SSW 3.5 mph - N/A   Mist
6:06 AM 42.8 °F 40.1 °F 41.0 °F 93% 30.01 in 4.3 mi South 4.6 mph - N/A   Mostly Cloudy
6:07 AM 42.8 °F 39.3 °F 42.8 °F 100% 30.01 in 5.0 mi SSE 5.8 mph - N/A   Overcast
6:11 AM 42.8 °F 39.3 °F 42.8 °F 100% 30.01 in 5.0 mi SSE 5.8 mph - N/A   Overcast
6:25 AM 44.6 °F 40.7 °F 44.6 °F 100% 30.01 in 5.0 mi SSE 6.9 mph - N/A   Overcast
6:55 AM 44.6 °F 39.7 °F 44.6 °F 100% 30.01 in 5.0 mi South 9.2 mph - N/A   Overcast
7:25 AM 44.6 °F 39.7 °F 42.8 °F 93% 30.01 in 5.6 mi South 9.2 mph - N/A   Scattered Clouds
7:55 AM 44.6 °F 39.7 °F 42.8 °F 93% 30.01 in 6.2 mi South 9.2 mph - N/A   Partly Cloudy
8:00 AM 45 °F - 43 °F 91% 30.03 in 8 mi South 8.9 mph - -   Partly Cloudy
8:25 AM 46.4 °F 41.9 °F 42.8 °F 87% 30.01 in 6.2 mi South 9.2 mph - N/A   Mostly Cloudy
8:55 AM 46.4 °F 42.4 °F 44.6 °F 93% 30.01 in 6.2 mi South 8.1 mph - N/A   Partly Cloudy
9:25 AM 48.2 °F - 44.6 °F 87% 30.01 in 6.2 mi South 8.1 mph - N/A   Partly Cloudy
9:55 AM 51.8 °F - 46.4 °F 82% 30.01 in 6.2 mi South 8.1 mph - N/A   Partly Cloudy
10:25 AM 53.6 °F - 48.2 °F 82% 30.01 in 6.2 mi SSW 10.4 mph - N/A   Partly Cloudy
10:55 AM 55.4 °F - 48.2 °F 77% 30.01 in 6.2 mi SW 11.5 mph - N/A   Scattered Clouds
11:00 AM 57 °F - 49 °F 66% 30.02 in 19 mi SW 13.4 mph - -   Mostly Cloudy
11:25 AM 57.2 °F - 48.2 °F 72% 30.01 in 6.2 mi SSW 10.4 mph - N/A   Partly Cloudy
11:29 AM 59.0 °F - 50.0 °F 72% 30.01 in 6.2 mi SSW 10.4 mph - N/A   Partly Cloudy
11:55 AM 59.0 °F - 50.0 °F 72% 29.98 in 6.2 mi SSW 11.5 mph - N/A   Unknown
12:25 PM 60.8 °F - 50.0 °F 68% 29.98 in 6.2 mi SSW 9.2 mph - N/A   Partly Cloudy
12:55 PM 62.6 °F - 51.8 °F 68% 29.98 in 6.2 mi SSW 9.2 mph - N/A   Scattered Clouds
1:25 PM 62.6 °F - 50.0 °F 63% 29.98 in 6.2 mi SSW 11.5 mph - N/A   Partly Cloudy
1:55 PM 64.4 °F - 50.0 °F 59% 29.98 in 6.2 mi SSW 10.4 mph - N/A   Partly Cloudy
2:00 PM 65 °F - 50 °F 48% 29.98 in 22 mi South 11.2 mph - -   Partly Cloudy
2:25 PM 66.2 °F - 50.0 °F 56% 29.95 in 6.2 mi SW 12.7 mph - N/A   Unknown
2:55 PM 66.2 °F - 48.2 °F 52% 29.95 in 6.2 mi SSW 13.8 mph - N/A   Unknown
3:25 PM 68.0 °F - 50.0 °F 52% 29.95 in 6.2 mi SSW 10.4 mph - N/A   Partly Cloudy
3:55 PM 68.0 °F - 50.0 °F 52% 29.95 in 6.2 mi SSW 13.8 mph - N/A   Overcast
4:25 PM 66.2 °F - 50.0 °F 56% 29.95 in 6.2 mi SSW 9.2 mph - N/A   Overcast
4:55 PM 66.2 °F - 48.2 °F 52% 29.95 in 6.2 mi SSW 13.8 mph - N/A   Overcast
5:00 PM 65 °F - 49 °F 45% 29.96 in 28 mi SSW 11.2 mph - -   Overcast
5:25 PM 64.4 °F - 50.0 °F 59% 29.95 in 6.2 mi South 8.1 mph - N/A   Overcast
5:55 PM 64.4 °F - 50.0 °F 59% 29.95 in 6.2 mi SSW 8.1 mph - N/A   Overcast
6:25 PM 62.6 °F - 50.0 °F 63% 29.95 in 6.2 mi South 6.9 mph - N/A   Overcast
6:55 PM 60.8 °F - 50.0 °F 68% 29.95 in 6.2 mi South 6.9 mph - N/A   Overcast
7:25 PM 60.8 °F - 50.0 °F 68% 29.95 in 6.2 mi South 6.9 mph - N/A   Overcast
7:55 PM 59.0 °F - 50.0 °F 72% 29.95 in 6.2 mi South 8.1 mph - N/A   Overcast
8:00 PM 60 °F - 50 °F 60% 29.96 in 25 mi South 8.9 mph - -   Partly Cloudy
8:25 PM 59.0 °F - 50.0 °F 72% 29.95 in 6.2 mi SSW 10.4 mph - N/A   Overcast
8:55 PM 60.8 °F - 50.0 °F 68% 29.95 in 6.2 mi SSW 10.4 mph - N/A   Overcast
9:25 PM 60.8 °F - 50.0 °F 68% 29.95 in 6.2 mi SSW 11.5 mph - N/A   Overcast
9:55 PM 60.8 °F - 50.0 °F 68% 29.95 in 6.2 mi SSW 11.5 mph - N/A   Mostly Cloudy
10:05 PM 59.0 °F - 50.0 °F 72% 29.95 in 6.2 mi SSW 10.4 mph - N/A   Light Drizzle
10:19 PM 59.0 °F - 50.0 °F 72% 29.95 in 3.7 mi SSW 11.5 mph - N/A   Haze
10:25 PM 59.0 °F - 50.0 °F 72% 29.95 in 6.2 mi SSW 12.7 mph - N/A Rain Light Rain
10:38 PM 59.0 °F - 50.0 °F 72% 29.95 in 6.2 mi South 9.2 mph - N/A   Overcast
10:55 PM 59.0 °F - 50.0 °F 72% 29.95 in 6.2 mi South 9.2 mph - N/A   Mostly Cloudy
11:00 PM 58 °F - 50 °F 66% 29.97 in 25 mi South 8.9 mph - - Rain Rain
11:25 PM 57.2 °F - 50.0 °F 77% 29.95 in 6.2 mi South 9.2 mph - N/A   Overcast
11:55 PM 57.2 °F - 50.0 °F 77% 29.95 in 6.2 mi South 10.4 mph - N/A   Overcast